Time,TemperatureF,DewpointF,PressureIn,WindDirection,WindDirectionDegrees,WindSpeedMPH,WindSpeedGustMPH,Humidity,HourlyPrecipIn,Conditions,Clouds,dailyrainin,SoftwareType,DateUTC
2013-08-14 00:10:00,63.0,53.4,29.65,West,270,0.0,-999.0,71,-99.99,,,0.00,Acu-Link.com,2013-08-14 07:10:00,
2013-08-14 00:25:00,62.8,53.6,29.65,WNW,292,0.0,-999.0,72,-99.99,,,0.00,Acu-Link.com,2013-08-14 07:25:00,
2013-08-14 00:41:00,62.8,53.6,29.65,NW,315,1.7,-999.0,72,-99.99,,,0.00,Acu-Link.com,2013-08-14 07:41:00,
2013-08-14 00:56:00,61.9,53.9,29.65,WSW,247,0.0,-999.0,75,-99.99,,,0.00,Acu-Link.com,2013-08-14 07:56:00,
2013-08-14 01:11:00,61.7,54.4,29.65,NNW,337,0.0,-999.0,77,-99.99,,,0.00,Acu-Link.com,2013-08-14 08:11:00,
2013-08-14 01:26:00,61.7,54.4,29.65,WNW,292,0.0,-999.0,77,-99.99,,,0.00,Acu-Link.com,2013-08-14 08:26:00,
2013-08-14 01:41:00,61.0,54.1,29.65,WSW,247,0.0,-999.0,78,-99.99,,,0.00,Acu-Link.com,2013-08-14 08:41:00,
2013-08-14 01:57:00,60.4,53.5,29.65,SW,225,0.0,-999.0,78,-99.99,,,0.00,Acu-Link.com,2013-08-14 08:57:00,
2013-08-14 02:12:00,60.4,53.2,29.64,NNE,22,0.0,-999.0,77,-99.99,,,0.00,Acu-Link.com,2013-08-14 09:12:00,
2013-08-14 02:27:00,59.9,53.0,29.65,WNW,292,0.0,-999.0,78,-99.99,,,0.00,Acu-Link.com,2013-08-14 09:27:00,
2013-08-14 02:42:00,59.7,53.2,29.65,East,90,2.2,-999.0,79,-99.99,,,0.00,Acu-Link.com,2013-08-14 09:42:00,
2013-08-14 02:58:00,59.5,53.3,29.65,SW,225,1.7,-999.0,80,-99.99,,,0.00,Acu-Link.com,2013-08-14 09:58:00,
2013-08-14 03:13:00,59.4,52.9,29.65,West,270,1.1,-999.0,79,-99.99,,,0.00,Acu-Link.com,2013-08-14 10:13:00,
2013-08-14 03:28:00,59.7,51.8,29.65,NNW,337,0.0,-999.0,75,-99.99,,,0.00,Acu-Link.com,2013-08-14 10:28:00,
2013-08-14 03:43:00,59.4,51.1,29.65,West,270,2.7,-999.0,74,-99.99,,,0.00,Acu-Link.com,2013-08-14 10:43:00,
2013-08-14 03:59:00,59.2,50.9,29.66,WNW,292,0.0,-999.0,74,-99.99,,,0.00,Acu-Link.com,2013-08-14 10:59:00,
2013-08-14 04:14:00,59.0,51.1,29.65,South,180,0.0,-999.0,75,-99.99,,,0.00,Acu-Link.com,2013-08-14 11:14:00,
2013-08-14 04:29:00,59.2,52.0,29.65,West,270,1.7,-999.0,77,-99.99,,,0.00,Acu-Link.com,2013-08-14 11:29:00,
2013-08-14 04:45:00,59.0,51.8,29.65,NNW,337,1.7,-999.0,77,-99.99,,,0.00,Acu-Link.com,2013-08-14 11:45:00,
2013-08-14 05:00:00,58.8,51.3,29.65,West,270,0.0,-999.0,76,-99.99,,,0.00,Acu-Link.com,2013-08-14 12:00:00,
2013-08-14 05:15:00,58.5,51.7,29.65,WNW,292,2.2,-999.0,78,-99.99,,,0.00,Acu-Link.com,2013-08-14 12:15:00,
2013-08-14 05:30:00,58.6,52.4,29.65,WNW,292,3.7,-999.0,80,-99.99,,,0.00,Acu-Link.com,2013-08-14 12:30:00,
2013-08-14 05:46:00,58.5,52.0,29.65,NNW,337,2.2,-999.0,79,-99.99,,,0.00,Acu-Link.com,2013-08-14 12:46:00,
2013-08-14 06:01:00,58.3,52.2,29.66,West,270,2.7,-999.0,80,-99.99,,,0.00,Acu-Link.com,2013-08-14 13:01:00,
2013-08-14 06:16:00,58.3,51.8,29.65,WNW,292,3.2,-999.0,79,-99.99,,,0.00,Acu-Link.com,2013-08-14 13:16:00,
2013-08-14 06:32:00,58.5,52.0,29.66,West,270,2.2,-999.0,79,-99.99,,,0.00,Acu-Link.com,2013-08-14 13:32:00,
2013-08-14 06:47:00,58.5,52.0,29.66,NW,315,0.0,-999.0,79,-99.99,,,0.00,Acu-Link.com,2013-08-14 13:47:00,
2013-08-14 07:02:00,59.2,53.0,29.67,WSW,247,0.0,-999.0,80,-99.99,,,0.00,Acu-Link.com,2013-08-14 14:02:00,
2013-08-14 07:17:00,60.1,53.6,29.68,SE,135,1.7,-999.0,79,-99.99,,,0.00,Acu-Link.com,2013-08-14 14:17:00,
2013-08-14 07:33:00,61.3,54.0,29.68,ESE,112,0.0,-999.0,77,-99.99,,,0.00,Acu-Link.com,2013-08-14 14:33:00,
2013-08-14 07:48:00,64.4,54.8,29.68,North,0,0.0,-999.0,71,-99.99,,,0.00,Acu-Link.com,2013-08-14 14:48:00,
2013-08-14 08:03:00,66.7,55.4,29.68,West,270,0.0,-999.0,67,-99.99,,,0.00,Acu-Link.com,2013-08-14 15:03:00,
2013-08-14 08:19:00,67.3,56.0,29.68,SSE,157,0.0,-999.0,67,-99.99,,,0.00,Acu-Link.com,2013-08-14 15:19:00,
2013-08-14 08:34:00,68.4,55.7,29.68,NE,45,1.1,-999.0,64,-99.99,,,0.00,Acu-Link.com,2013-08-14 15:34:00,
2013-08-14 08:49:00,70.2,56.1,29.68,SSW,202,1.1,-999.0,61,-99.99,,,0.00,Acu-Link.com,2013-08-14 15:49:00,
2013-08-14 09:05:00,71.6,56.0,29.68,ESE,112,2.2,-999.0,58,-99.99,,,0.00,Acu-Link.com,2013-08-14 16:05:00,
2013-08-14 09:20:00,73.2,56.5,29.69,SSE,157,1.7,-999.0,56,-99.99,,,0.00,Acu-Link.com,2013-08-14 16:20:00,
2013-08-14 09:35:00,73.8,55.6,29.69,South,180,3.2,-999.0,53,-99.99,,,0.00,Acu-Link.com,2013-08-14 16:35:00,
2013-08-14 09:50:00,74.8,55.4,29.69,SSW,202,1.7,-999.0,51,-99.99,,,0.00,Acu-Link.com,2013-08-14 16:50:00,
2013-08-14 10:06:00,75.6,56.2,29.69,West,270,1.1,-999.0,51,-99.99,,,0.00,Acu-Link.com,2013-08-14 17:06:00,
2013-08-14 10:21:00,77.9,56.0,29.70,WSW,247,4.2,-999.0,47,-99.99,,,0.00,Acu-Link.com,2013-08-14 17:21:00,
2013-08-14 10:36:00,78.6,56.7,29.69,South,180,2.2,-999.0,47,-99.99,,,0.00,Acu-Link.com,2013-08-14 17:36:00,
2013-08-14 10:51:00,78.8,57.4,29.69,East,90,3.2,-999.0,48,-99.99,,,0.00,Acu-Link.com,2013-08-14 17:51:00,
2013-08-14 11:07:00,79.7,58.3,29.69,NW,315,0.0,-999.0,48,-99.99,,,0.00,Acu-Link.com,2013-08-14 18:07:00,
2013-08-14 12:08:00,84.7,58.4,29.68,SSE,157,2.7,-999.0,41,-99.99,,,0.00,Acu-Link.com,2013-08-14 19:08:00,
2013-08-14 12:23:00,86.7,58.0,29.68,SSE,157,1.1,-999.0,38,-99.99,,,0.00,Acu-Link.com,2013-08-14 19:23:00,
2013-08-14 12:38:00,86.7,58.7,29.68,ESE,112,3.2,-999.0,39,-99.99,,,0.00,Acu-Link.com,2013-08-14 19:38:00,
2013-08-14 13:09:00,88.5,59.6,29.67,NNE,22,1.7,-999.0,38,-99.99,,,0.00,Acu-Link.com,2013-08-14 20:09:00,
2013-08-14 13:24:00,88.2,57.1,29.67,SSW,202,3.7,-999.0,35,-99.99,,,0.00,Acu-Link.com,2013-08-14 20:24:00,
2013-08-14 13:39:00,89.6,58.3,29.66,West,270,3.7,-999.0,35,-99.99,,,0.00,Acu-Link.com,2013-08-14 20:39:00,
2013-08-14 13:55:00,88.5,57.3,29.66,ENE,67,3.7,-999.0,35,-99.99,,,0.00,Acu-Link.com,2013-08-14 20:55:00,
2013-08-14 14:10:00,90.5,59.1,29.66,SSE,157,2.2,-999.0,35,-99.99,,,0.00,Acu-Link.com,2013-08-14 21:10:00,
2013-08-14 14:25:00,92.3,59.8,29.65,SSW,202,2.2,-999.0,34,-99.99,,,0.00,Acu-Link.com,2013-08-14 21:25:00,
2013-08-14 14:40:00,92.1,59.7,29.65,South,180,2.2,-999.0,34,-99.99,,,0.00,Acu-Link.com,2013-08-14 21:40:00,
2013-08-14 14:56:00,90.9,57.8,29.64,SW,225,2.7,-999.0,33,-99.99,,,0.00,Acu-Link.com,2013-08-14 21:56:00,
2013-08-14 15:11:00,91.4,59.0,29.64,SSW,202,1.7,-999.0,34,-99.99,,,0.00,Acu-Link.com,2013-08-14 22:11:00,
2013-08-14 15:41:00,92.3,58.1,29.63,WSW,247,3.7,-999.0,32,-99.99,,,0.00,Acu-Link.com,2013-08-14 22:41:00,
2013-08-14 15:56:00,91.6,56.6,29.62,South,180,2.7,-999.0,31,-99.99,,,0.00,Acu-Link.com,2013-08-14 22:56:00,
2013-08-14 16:11:00,90.7,56.7,29.62,WSW,247,3.2,-999.0,32,-99.99,,,0.00,Acu-Link.com,2013-08-14 23:11:00,
2013-08-14 16:26:00,90.1,57.1,29.62,North,0,2.7,-999.0,33,-99.99,,,0.00,Acu-Link.com,2013-08-14 23:26:00,
2013-08-14 16:42:00,88.7,55.9,29.61,West,270,2.2,-999.0,33,-99.99,,,0.00,Acu-Link.com,2013-08-14 23:42:00,
2013-08-14 16:57:00,88.3,56.3,29.62,ESE,112,8.9,-999.0,34,-99.99,,,0.00,Acu-Link.com,2013-08-14 23:57:00,
2013-08-14 17:13:00,88.5,56.5,29.61,North,0,5.3,-999.0,34,-99.99,,,0.00,Acu-Link.com,2013-08-15 00:13:00,
2013-08-14 17:28:00,89.4,56.5,29.61,SE,135,2.2,-999.0,33,-99.99,,,0.00,Acu-Link.com,2013-08-15 00:28:00,
2013-08-14 17:43:00,88.3,57.1,29.60,ESE,112,2.2,-999.0,35,-99.99,,,0.00,Acu-Link.com,2013-08-15 00:43:00,
2013-08-14 17:59:00,86.0,57.4,29.60,SSE,157,3.7,-999.0,38,-99.99,,,0.00,Acu-Link.com,2013-08-15 00:59:00,
2013-08-14 18:14:00,84.9,57.1,29.59,SSE,157,7.3,-999.0,39,-99.99,,,0.00,Acu-Link.com,2013-08-15 01:14:00,
2013-08-14 18:29:00,84.4,56.7,29.59,ESE,112,2.7,-999.0,39,-99.99,,,0.00,Acu-Link.com,2013-08-15 01:29:00,
2013-08-14 18:44:00,84.2,57.2,29.59,North,0,2.2,-999.0,40,-99.99,,,0.00,Acu-Link.com,2013-08-15 01:44:00,
2013-08-14 19:00:00,81.9,55.9,29.60,North,0,2.2,-999.0,41,-99.99,,,0.00,Acu-Link.com,2013-08-15 02:00:00,
2013-08-14 19:15:00,77.2,57.7,29.60,West,270,2.2,-999.0,51,-99.99,,,0.00,Acu-Link.com,2013-08-15 02:15:00,
2013-08-14 19:30:00,75.9,56.5,29.60,WSW,247,1.7,-999.0,51,-99.99,,,0.00,Acu-Link.com,2013-08-15 02:30:00,
2013-08-14 19:45:00,73.2,57.0,29.60,SW,225,4.2,-999.0,57,-99.99,,,0.00,Acu-Link.com,2013-08-15 02:45:00,
2013-08-14 20:01:00,73.0,57.3,29.60,NNW,337,2.7,-999.0,58,-99.99,,,0.00,Acu-Link.com,2013-08-15 03:01:00,
2013-08-14 20:16:00,70.5,59.4,29.60,WSW,247,2.2,-999.0,68,-99.99,,,0.00,Acu-Link.com,2013-08-15 03:16:00,
2013-08-14 20:31:00,71.1,58.7,29.62,North,0,4.2,-999.0,65,-99.99,,,0.00,Acu-Link.com,2013-08-15 03:31:00,
2013-08-14 20:47:00,70.0,59.4,29.63,SW,225,3.2,-999.0,69,-99.99,,,0.00,Acu-Link.com,2013-08-15 03:47:00,
2013-08-14 21:02:00,69.8,58.3,29.63,SSW,202,2.2,-999.0,67,-99.99,,,0.00,Acu-Link.com,2013-08-15 04:02:00,
2013-08-14 21:17:00,69.4,58.8,29.63,West,270,2.2,-999.0,69,-99.99,,,0.00,Acu-Link.com,2013-08-15 04:17:00,
2013-08-14 21:32:00,68.5,58.7,29.63,WNW,292,1.1,-999.0,71,-99.99,,,0.00,Acu-Link.com,2013-08-15 04:32:00,
2013-08-14 21:47:00,68.7,58.9,29.63,WNW,292,4.2,-999.0,71,-99.99,,,0.00,Acu-Link.com,2013-08-15 04:47:00,
2013-08-14 22:03:00,68.4,59.0,29.63,NNE,22,3.2,-999.0,72,-99.99,,,0.00,Acu-Link.com,2013-08-15 05:03:00,
2013-08-14 22:18:00,67.5,58.9,29.63,SW,225,2.7,-999.0,74,-99.99,,,0.00,Acu-Link.com,2013-08-15 05:18:00,
2013-08-14 22:34:00,66.7,58.9,29.64,NNW,337,1.7,-999.0,76,-99.99,,,0.00,Acu-Link.com,2013-08-15 05:34:00,
2013-08-14 22:49:00,66.6,59.2,29.65,WSW,247,2.2,-999.0,77,-99.99,,,0.00,Acu-Link.com,2013-08-15 05:49:00,
2013-08-14 23:04:00,66.2,59.1,29.65,WNW,292,1.1,-999.0,78,-99.99,,,0.00,Acu-Link.com,2013-08-15 06:04:00,
2013-08-14 23:20:00,66.0,59.6,29.65,NNE,22,2.7,-999.0,80,-99.99,,,0.00,Acu-Link.com,2013-08-15 06:20:00,
2013-08-14 23:35:00,66.0,59.6,29.64,NW,315,3.7,-999.0,80,-99.99,,,0.00,Acu-Link.com,2013-08-15 06:35:00,
2013-08-14 23:50:00,65.8,59.5,29.64,West,270,2.2,-999.0,80,-99.99,,,0.00,Acu-Link.com,2013-08-15 06:50:00,